Location: Bremen
(53.0793°N, 8.8017°E)
Time: 13:05:33
(UTC+02:00)

Altair - Pass Details

Date: 21 April 2024
Orbit: 1501 x 1682 km, 47.2° (Epoch: 17 May)

Event Time Altitude Azimuth Distance (km) Brightness Sun altitude
Rises 23:09:00 0° 266° (W) 4,894 10.6 -18.6°
Reaches altitude 10° 23:12:13 10° 263° (W) 3,887 9.9 -18.9°
Maximum altitude 23:21:55 62° 186° (S) 1,768 7.5 -19.7°
Enters shadow 23:29:03 19° 112° (ESE) 3,087 8.6 -20.2°
Drops below altitude 10° 23:31:14 10° 109° (ESE) 3,745 - -20.4°
Sets 23:34:17 0° 106° (ESE) 4,706 - -20.6°
